Stations météo

Publicité
Sete, France (7641): Température de l'air & dewpoint: 18.05.2017 11:00:00 - 24.05.2017 11:00:00 (CEST)Sete, France (7641): Vitesse du vent & gusts: 18.05.2017 11:00:00 - 24.05.2017 11:00:00 (CEST)Sete, France (7641): Direction du vent: 18.05.2017 11:00:00 - 24.05.2017 11:00:00 (CEST)Sete, France (7641): reduced air pressure: 18.05.2017 11:00:00 - 24.05.2017 11:00:00 (CEST)Sete, France (7641): visibility: 18.05.2017 11:00:00 - 24.05.2017 11:00:00 (CEST)Sete, France (7641): Quantités de précipitations: 18.05.2017 11:00:00 - 24.05.2017 11:00:00 (CEST)
Date & Time tt [°C] td [°C] ff [km/h] ff [knt] fx [km/h] fx [knt] dd ppp [hPa] vv [km] rr [mm]
24.05.2017 11:00:00 27,5 12,7 11 6 31 17 N 1019,2 20 0,0
24.05.2017 10:00:00 24,4 13,9 11 6 34 18 WNW 1019,4 - 0,0
24.05.2017 09:00:00 21,5 13,1 21 11 35 19 WNW 1019,5 - 0,0
24.05.2017 08:00:00 21,1 12,0 28 15 46 25 NW 1019,6 20 0,0
24.05.2017 07:00:00 20,2 12,4 33 18 42 23 NW 1019,4 - 0,0
24.05.2017 06:00:00 20,0 12,5 31 17 46 25 NW 1019,0 - 0,0
24.05.2017 05:00:00 19,9 13,6 28 15 39 21 NW 1019,0 20 0,0
24.05.2017 04:00:00 19,0 13,8 29 16 41 22 WNW 1019,1 - 0,0
24.05.2017 03:00:00 18,7 13,8 31 17 45 24 WNW 1019,2 - 0,0
24.05.2017 02:00:00 20,1 14,0 35 19 47 25 WNW 1019,2 - 0,0
24.05.2017 01:00:00 20,9 14,1 35 19 49 27 WNW 1019,3 - 0,0
24.05.2017 00:00:00 21,1 14,3 35 19 46 25 NW 1019,0 - 0,0
23.05.2017 23:00:00 21,5 14,4 34 19 50 27 NW 1018,9 - 0,0
23.05.2017 22:00:00 22,8 14,4 29 15 45 24 NW 1018,4 - 0,0
23.05.2017 21:00:00 24,3 14,1 25 14 39 21 NW 1017,9 - 0,0
23.05.2017 20:00:00 26,4 14,2 12 6 29 16 NW 1017,6 20 0,0
23.05.2017 19:00:00 28,1 15,0 10 6 30 16 NNW 1017,4 - 0,0
23.05.2017 18:00:00 28,9 13,6 16 9 31 17 W 1017,5 - 0,0
23.05.2017 17:00:00 28,2 12,9 15 8 38 21 WNW 1017,9 20 0,0
23.05.2017 16:00:00 29,2 14,2 17 9 33 18 W 1018,0 - 0,0
23.05.2017 15:00:00 28,0 13,5 16 9 33 18 W 1018,5 - 0,0
23.05.2017 14:00:00 27,8 13,7 19 10 39 21 W 1018,8 - 0,0
23.05.2017 13:00:00 28,2 14,1 12 7 37 20 WNW 1019,0 - 0,0
23.05.2017 12:00:00 26,3 14,1 18 10 41 22 NW 1019,2 - 0,0
23.05.2017 11:00:00 25,8 14,6 13 7 40 21 NW 1019,3 20 0,0
23.05.2017 10:00:00 23,8 14,5 22 12 41 22 NW 1019,1 - 0,0
23.05.2017 09:00:00 21,6 14,7 19 10 37 20 NW 1019,0 - 0,0
23.05.2017 08:00:00 19,9 14,7 14 7 29 16 WNW 1018,5 - 0,0
23.05.2017 07:00:00 18,2 14,5 15 8 24 13 W 1018,3 - 0,0
23.05.2017 06:00:00 17,9 13,8 16 9 31 17 WNW 1017,9 - 0,0
23.05.2017 05:00:00 17,6 14,1 14 7 26 14 W 1017,9 20 0,0
23.05.2017 04:00:00 17,3 14,6 13 7 21 11 W 1017,8 - 0,0
23.05.2017 03:00:00 18,7 14,0 9 5 26 14 WNW 1017,8 - 0,0
23.05.2017 02:00:00 18,2 14,1 18 10 31 17 W 1018,1 - 0,0
23.05.2017 01:00:00 16,9 14,9 20 11 30 16 WNW 1018,3 - 0,0
23.05.2017 00:00:00 17,0 15,5 16 8 36 19 W 1018,8 - 0,0
22.05.2017 23:00:00 17,2 14,7 17 9 27 15 WSW 1018,7 - 0,0
22.05.2017 22:00:00 17,2 12,9 16 8 22 12 WSW 1018,5 - 0,0
22.05.2017 21:00:00 16,9 12,4 14 8 22 12 SW 1018,2 - 0,0
22.05.2017 20:00:00 17,6 14,5 15 8 27 14 SSW 1018,2 20 0,0
22.05.2017 19:00:00 18,8 14,5 11 6 22 12 SSW 1018,4 - 0,0
22.05.2017 18:00:00 20,9 14,1 7 4 15 8 SSE 1018,4 - 0,0
22.05.2017 17:00:00 20,5 13,2 6 3 16 8 SE 1018,8 - 0,0
22.05.2017 16:00:00 19,9 13,1 7 4 18 10 ESE 1019,3 - 0,0
22.05.2017 15:00:00 20,3 12,8 8 4 19 10 E 1019,3 - 0,0
22.05.2017 14:00:00 21,3 11,6 10 6 21 12 E 1019,2 20 0,0
22.05.2017 13:00:00 20,6 11,2 10 5 21 12 E 1019,6 - 0,0
22.05.2017 12:00:00 19,3 12,1 10 5 21 12 ENE 1019,8 - 0,0
22.05.2017 11:00:00 17,2 11,9 11 6 24 13 NE 1019,7 15 0,0
22.05.2017 10:00:00 16,3 11,7 11 6 24 13 ENE 1019,6 - 0,0
22.05.2017 09:00:00 16,0 11,0 14 8 27 14 NNE 1019,0 - 0,0
22.05.2017 08:00:00 15,0 11,8 15 8 23 12 N 1019,0 15 0,0
22.05.2017 07:00:00 14,2 11,4 15 8 23 12 N 1018,4 - 0,0
22.05.2017 06:00:00 14,3 11,4 13 7 22 12 NNE 1017,6 - 0,0
22.05.2017 05:00:00 14,5 11,5 16 9 23 13 NE 1017,7 15 0,0
22.05.2017 04:00:00 14,6 12,3 13 7 21 12 NE 1018,0 - 0,0
22.05.2017 03:00:00 15,1 13,1 10 6 19 10 NE 1018,4 - 0,0
22.05.2017 02:00:00 15,0 12,3 13 7 20 11 NNE 1018,7 - 0,0
22.05.2017 01:00:00 15,5 12,6 4 2 10 6 ENE 1019,3 - 0,0
22.05.2017 00:00:00 15,8 12,7 5 3 8 5 NNE 1019,4 - 0,0
21.05.2017 23:00:00 15,9 12,6 2 1 11 6 ENE 1019,7 - 0,0
21.05.2017 22:00:00 16,8 12,9 6 3 17 9 S 1019,7 - 0,0
21.05.2017 21:00:00 17,4 12,9 13 7 22 12 SSW 1019,4 - 0,0
21.05.2017 20:00:00 18,8 7,6 14 7 21 11 SSW 1019,2 20 0,0
21.05.2017 19:00:00 20,3 6,2 11 6 19 11 SSW 1018,8 - 0,0
21.05.2017 18:00:00 20,7 7,3 14 8 26 14 SW 1019,0 - 0,0
21.05.2017 17:00:00 20,6 7,9 15 8 29 15 SW 1019,5 25 0,0
21.05.2017 16:00:00 21,5 7,3 16 8 29 16 SW 1019,7 - 0,0
21.05.2017 15:00:00 21,3 7,1 14 8 29 16 SSW 1020,1 - 0,0
21.05.2017 14:00:00 21,0 8,3 16 9 27 15 SSW 1020,6 25 0,0
21.05.2017 13:00:00 23,3 5,7 12 6 18 10 S 1021,1 - 0,0
21.05.2017 12:00:00 23,0 7,5 6 4 32 18 ESE 1021,4 - 0,0
21.05.2017 11:00:00 21,6 3,7 14 8 31 17 N 1021,7 - 0,0
21.05.2017 10:00:00 19,9 4,8 12 7 23 12 N 1021,9 - 0,0
21.05.2017 09:00:00 17,7 5,9 13 7 29 16 NW 1022,0 - 0,0
21.05.2017 08:00:00 15,7 5,6 18 10 29 16 NW 1021,9 15 0,0
21.05.2017 07:00:00 16,0 7,0 16 9 32 17 NW 1021,7 - 0,0
21.05.2017 06:00:00 13,9 7,9 18 10 39 21 NW 1021,9 - 0,0
21.05.2017 05:00:00 14,1 8,1 23 12 36 20 NW 1021,9 15 0,0
21.05.2017 04:00:00 14,1 8,5 22 12 40 22 NW 1022,7 - 0,0
21.05.2017 03:00:00 14,4 8,1 21 11 38 21 WNW 1023,2 - 0,0
21.05.2017 02:00:00 15,0 7,8 24 13 37 20 NW 1023,5 - 0,0
21.05.2017 01:00:00 15,4 8,2 17 9 31 17 NW 1023,9 - 0,0
21.05.2017 00:00:00 15,9 8,4 13 7 37 20 NW 1023,8 - 0,0
20.05.2017 23:00:00 16,5 8,5 10 5 37 20 NW 1023,6 - 0,0
20.05.2017 22:00:00 17,2 8,3 15 8 43 23 NW 1023,0 - 0,0
20.05.2017 21:00:00 18,1 7,5 16 9 40 22 NW 1022,9 - 0,0
20.05.2017 20:00:00 19,2 7,0 14 8 41 22 NW 1022,7 20 0,0
20.05.2017 19:00:00 21,0 4,9 20 11 44 24 NW 1022,2 - 0,0
20.05.2017 18:00:00 21,9 4,4 16 8 48 26 NNW 1022,0 - 0,0
20.05.2017 17:00:00 22,3 3,9 16 9 45 24 NNW 1022,2 - 0,0
20.05.2017 16:00:00 22,3 4,8 18 10 51 28 NNW 1022,2 - 0,0
20.05.2017 15:00:00 22,1 6,3 18 10 51 28 NNW 1022,3 - 0,0
20.05.2017 14:00:00 21,2 5,9 20 11 41 22 NNW 1022,5 20 0,0
20.05.2017 13:00:00 20,7 5,9 13 7 38 21 NNW 1022,7 - 0,0
20.05.2017 12:00:00 19,5 4,8 16 9 40 22 NW 1022,8 - 0,0
20.05.2017 11:00:00 18,4 5,9 12 6 42 23 WNW 1022,6 20 0,0
20.05.2017 10:00:00 17,2 5,8 13 7 40 22 NNW 1022,5 - 0,0
20.05.2017 09:00:00 16,1 6,5 10 6 34 19 NNW 1022,4 - 0,0
20.05.2017 08:00:00 13,8 6,2 10 5 34 18 NW 1022,4 20 0,0
20.05.2017 07:00:00 13,0 5,9 8 4 30 16 NNW 1021,8 - 0,0
20.05.2017 06:00:00 12,1 5,9 9 5 25 13 NW 1021,4 - 0,0
20.05.2017 05:00:00 12,1 6,4 9 5 25 13 NW 1021,5 20 0,0
20.05.2017 04:00:00 12,5 6,3 13 7 25 13 NW 1021,3 - 0,0
20.05.2017 03:00:00 12,7 6,5 11 6 23 13 NW 1021,4 - 0,0
20.05.2017 02:00:00 13,0 6,3 13 7 30 16 NNW 1021,6 - 0,0
20.05.2017 01:00:00 13,4 6,3 11 6 31 17 NNW 1021,7 - 0,0
20.05.2017 00:00:00 14,2 6,0 14 7 41 22 NW 1021,7 - 0,0
19.05.2017 23:00:00 14,7 5,7 20 11 40 22 NNW 1021,4 - 0,0
19.05.2017 22:00:00 15,5 5,1 18 10 40 22 NNW 1020,9 - 0,0
19.05.2017 21:00:00 16,3 5,8 10 5 34 18 NNW 1020,0 - 0,0
19.05.2017 20:00:00 17,3 5,2 19 11 46 25 NNW 1019,1 25 0,0
19.05.2017 19:00:00 19,9 4,8 18 10 41 22 NNW 1018,2 - 0,0
19.05.2017 18:00:00 20,6 5,4 15 8 41 22 NNW 1017,8 - 0,0
19.05.2017 17:00:00 19,8 4,7 12 7 34 18 NNW 1017,7 25 0,0
19.05.2017 16:00:00 21,2 5,5 11 6 38 21 NW 1017,8 - 0,0
19.05.2017 15:00:00 20,1 5,3 16 8 45 24 NW 1018,0 - 0,0
19.05.2017 14:00:00 19,5 5,2 15 8 40 22 NNW 1018,3 20 0,0
19.05.2017 13:00:00 18,8 4,9 21 11 52 28 NNW 1018,7 - 0,0
19.05.2017 12:00:00 17,9 5,1 19 10 48 26 NNW 1018,9 - 0,0
19.05.2017 11:00:00 17,2 6,1 22 12 45 25 NNW 1018,6 - 0,0
19.05.2017 10:00:00 15,9 6,9 14 8 38 21 NW 1018,4 - 0,0
19.05.2017 09:00:00 14,3 6,9 17 9 36 20 WNW 1017,8 - 0,0
19.05.2017 08:00:00 13,4 6,9 12 6 33 18 NNW 1017,5 20 0,0
19.05.2017 07:00:00 11,3 7,0 4 2 31 17 WNW 1017,0 - 0,0
19.05.2017 06:00:00 10,7 7,0 10 6 29 16 W 1016,4 20 0,0
19.05.2017 05:00:00 10,9 6,6 9 5 40 22 WNW 1016,3 - 0,0
19.05.2017 04:00:00 10,9 6,4 17 9 44 24 WNW 1016,0 - 0,0
19.05.2017 03:00:00 10,6 7,1 21 11 45 24 WNW 1015,6 - 0,0
19.05.2017 02:00:00 10,3 7,4 16 8 46 25 WNW 1015,8 - 0,2
19.05.2017 01:00:00 10,6 8,4 16 9 42 23 WNW 1016,2 - 1,8
19.05.2017 00:00:00 11,5 8,7 21 11 50 27 WNW 1015,7 - 0,0
18.05.2017 23:00:00 12,4 9,8 21 12 47 25 WNW 1015,3 - 0,8
18.05.2017 22:00:00 14,2 9,8 23 13 49 27 NW 1014,7 - 0,0
18.05.2017 21:00:00 17,0 11,0 17 9 35 19 WNW 1013,7 - 0,0
18.05.2017 20:00:00 17,7 12,2 9 5 31 17 W 1013,4 - 0,0
18.05.2017 19:00:00 19,1 11,9 14 8 33 18 WSW 1013,2 - 0,0
18.05.2017 18:00:00 21,8 15,9 13 7 29 16 SSE 1013,1 - 0,0
18.05.2017 17:00:00 20,1 15,7 16 9 31 17 ESE 1012,6 20 0,0
18.05.2017 16:00:00 20,0 15,0 15 8 27 14 ESE 1013,3 - 0,0
18.05.2017 15:00:00 20,9 15,0 11 6 24 13 SE 1013,5 - 0,0
18.05.2017 14:00:00 20,8 16,0 11 6 23 13 ESE 1013,7 20 0,0
18.05.2017 13:00:00 20,6 16,0 11 6 23 13 ESE 1013,9 - 0,0
18.05.2017 12:00:00 19,8 16,1 13 7 22 12 ESE 1014,1 - 0,0
18.05.2017 11:00:00 19,7 16,3 11 6 22 12 E 1014,5 - 0,0

tt = Température de l'air
td = dewpoint
ff = Vitesse du vent
fx = gusts
dd = Direction du vent
ppp = reduced air pressure
vv = visibility
rr = Quantités de précipitations

stations d'obs. à proximité